EW9227 Weather Reports


Display with metric or nautical units.
time (UTC)temp
F
wind
direction
speed
MPH
gust
MPH
rain 1hr
in
rain 24hr
in
rain mn
in
humidity
%
barometer
mb
20190326192301 59 78 5.0 10.0 0.00 0.22 0.00 70 1016.4
20190326191759 59 77 4.0 10.0 0.00 0.22 0.00 69 1016.4
20190326191301 58 127 3.0 8.0 0.00 0.22 0.00 68 1016.5
20190326190800 58 83 4.0 9.0 0.00 0.22 0.00 67 1016.5
20190326190308 58 68 5.0 9.0 0.00 0.22 0.00 67 1016.6
20190326185800 58 127 5.0 8.0 0.00 0.22 0.00 68 1016.7
20190326185300 58 126 4.0 8.0 0.00 0.22 0.00 69 1016.8
20190326184800 59 120 3.0 7.0 0.00 0.22 0.00 71 1016.8
20190326184301 58 84 2.0 8.0 0.00 0.22 0.00 72 1016.9
20190326183801 58 130 4.0 8.0 0.00 0.22 0.00 70 1016.9
20190326183300 58 131 3.0 8.0 0.00 0.22 0.00 71 1016.9
20190326182800 58 105 3.0 7.0 0.00 0.22 0.00 73 1016.9
20190326182300 58 222 3.0 7.0 0.00 0.22 0.00 73 1016.9
20190326181758 57 71 2.0 6.0 0.00 0.22 0.00 75 1016.9
20190326181257 57 207 3.0 8.0 0.00 0.22 0.00 76 1017.0
20190326180758 57 154 3.0 8.0 0.00 0.22 0.00 76 1017.1
20190326180256 56 129 4.0 9.0 0.00 0.22 0.00 76 1017.1
20190326175756 56 65 3.0 9.0 0.00 0.22 0.00 78 1017.0
20190326175255 56 180 2.0 5.0 0.00 0.22 0.00 78 1017.0
20190326174756 56 27 3.0 8.0 0.00 0.22 0.00 81 1017.0
20190326174256 55 93 4.0 8.0 0.00 0.22 0.00 80 1017.0
20190326173755 55 105 3.0 7.0 0.00 0.22 0.00 81 1016.9
20190326173256 55 58 4.0 8.0 0.00 0.22 0.00 81 1017.0
20190326172755 55 150 5.0 8.0 0.00 0.22 0.00 81 1017.0
20190326172256 55 124 5.0 8.0 0.00 0.22 0.00 81 1017.1
20190326171754 54 101 5.0 9.0 0.00 0.22 0.00 81 1017.1
20190326171255 54 136 5.0 10.0 0.00 0.22 0.00 82 1017.1
20190326170755 54 82 4.0 10.0 0.00 0.22 0.00 81 1017.0
20190326170253 54 101 3.0 8.0 0.00 0.22 0.00 84 1017.0
20190326165753 54 104 3.0 8.0 0.00 0.22 0.00 84 1017.0
20190326165255 54 129 3.0 6.0 0.00 0.22 0.00 83 1016.9
20190326164755 54 103 3.0 5.0 0.00 0.22 0.00 83 1016.9
20190326164253 54 136 3.0 6.0 0.00 0.22 0.00 81 1017.1
20190326163754 55 101 3.0 6.0 0.00 0.22 0.00 82 1017.0
20190326163252 54 86 3.0 6.0 0.00 0.22 0.00 83 1017.0
20190326162753 54 63 3.0 6.0 0.00 0.22 0.00 83 1016.9
20190326162251 53 66 2.0 4.0 0.00 0.22 0.00 84 1016.8
20190326161752 53 34 3.0 8.0 0.00 0.22 0.00 86 1016.7
20190326161253 53 120 4.0 8.0 0.00 0.22 0.00 85 1016.7
20190326160752 53 87 4.0 7.0 0.00 0.22 0.00 85 1016.8
20190326160251 53 99 3.0 6.0 0.00 0.22 0.00 86 1017.0
20190326155752 53 88 3.0 6.0 0.00 0.22 0.00 87 1017.0
20190326155251 53 110 3.0 6.0 0.00 0.22 0.00 87 1017.0
20190326154752 53 75 2.0 6.0 0.00 0.22 0.00 85 1017.0
20190326154249 54 113 2.0 4.0 0.00 0.22 0.00 86 1016.9
20190326153750 53 101 2.0 4.0 0.00 0.22 0.00 87 1016.9
20190326153251 53 143 2.0 4.0 0.00 0.22 0.00 86 1016.9
20190326152749 53 137 1.0 3.0 0.00 0.22 0.00 88 1016.8
20190326152249 53 73 1.0 3.0 0.00 0.22 0.00 89 1016.9
20190326151749 52 116 1.0 2.0 0.00 0.22 0.00 89 1016.8
20190326151251 51 115 1.0 2.0 0.00 0.22 0.00 90 1016.8
20190326150748 51 103 1.0 2.0 0.00 0.22 0.00 90 1016.8
20190326150247 51 75 0.0 2.0 0.00 0.22 0.00 92 1016.9
20190326145747 50 162 1.0 1.0 0.00 0.22 0.00 93 1016.9
20190326145247 50 168 1.0 2.0 0.00 0.22 0.00 93 1016.8
20190326144748 49 188 1.0 2.0 0.00 0.22 0.00 93 1016.8
20190326144249 49 168 2.0 2.0 0.00 0.22 0.00 93 1016.7
20190326143748 49 211 1.0 2.0 0.00 0.22 0.00 93 1016.8
20190326143248 48 191 0.0 2.0 0.00 0.22 0.00 93 1016.7
20190326142747 48 95 0.0 1.0 0.00 0.22 0.00 93 1016.7
20190326142247 49 95 0.0 1.0 0.00 0.22 0.00 93 1016.6
20190326141746 49 95 0.0 1.0 0.00 0.22 0.00 93 1016.6
20190326141245 48 46 0.0 1.0 0.00 0.22 0.00 93 1016.7
20190326140746 48 326 0.0 1.0 0.00 0.22 0.00 93 1016.7
20190326140246 49 326 0.0 0.0 0.00 0.22 0.00 93 1016.7
20190326135746 49 326 0.0 0.0 0.00 0.22 0.00 92 1016.8
20190326135245 49 326 0.0 0.0 0.00 0.22 0.00 93 1016.8
20190326134744 49 326 0.0 1.0 0.00 0.22 0.00 93 1016.8
20190326134243 49 326 0.0 1.0 0.00 0.22 0.00 93 1016.9
20190326133744 49 300 1.0 1.0 0.00 0.22 0.00 93 1016.7
20190326133238 49 300 1.0 1.0 0.00 0.22 0.00 93 1016.8
20190326132737 49 300 0.0 1.0 0.00 0.22 0.00 93 1016.8
20190326132237 49 338 0.0 1.0 0.00 0.22 0.00 93 1016.8
20190326131737 49 338 0.0 1.0 0.00 0.22 0.00 93 1016.8
20190326131237 49 338 0.0 1.0 0.00 0.22 0.00 93 1016.9
20190326130738 49 338 0.0 1.0 0.00 0.22 0.00 93 1016.9
20190326130237 49 240 0.0 1.0 0.00 0.22 0.00 93 1016.9
20190326125737 49 216 0.0 0.0 0.00 0.22 0.00 93 1016.8
20190326125236 49 216 1.0 1.0 0.00 0.22 0.00 93 1016.8
20190326124737 49 217 1.0 1.0 0.00 0.22 0.00 93 1016.7
20190326124237 49 216 0.0 1.0 0.00 0.22 0.00 93 1016.7
20190326123737 49 216 0.0 1.0 0.00 0.22 0.00 93 1016.6
20190326123237 49 216 0.0 1.0 0.00 0.22 0.00 93 1016.7
20190326122738 49 216 1.0 1.0 0.00 0.22 0.00 93 1016.7
20190326122238 49 216 1.0 1.0 0.00 0.22 0.00 93 1016.6
20190326121737 49 209 0.0 1.0 0.00 0.22 0.00 92 1016.7
20190326121238 49 209 1.0 2.0 0.00 0.22 0.00 92 1016.6
20190326120738 49 209 0.0 2.0 0.00 0.22 0.00 92 1016.5
20190326120237 49 96 0.0 0.0 0.00 0.22 0.00 91 1016.5
20190326115738 50 96 0.0 1.0 0.00 0.22 0.00 92 1016.5
20190326115237 50 96 0.0 1.0 0.00 0.22 0.00 91 1016.6
20190326114737 50 96 0.0 1.0 0.00 0.22 0.00 91 1016.6
20190326114238 50 97 1.0 1.0 0.00 0.22 0.00 91 1016.6
20190326113737 50 102 1.0 1.0 0.00 0.22 0.00 91 1016.6
20190326113237 50 120 0.0 1.0 0.00 0.22 0.00 91 1016.5
20190326112738 50 117 0.0 2.0 0.00 0.22 0.00 91 1016.6
20190326112239 50 298 1.0 3.0 0.00 0.22 0.00 90 1016.6
20190326111737 50 292 2.0 6.0 0.00 0.22 0.00 90 1016.5
20190326111237 51 281 2.0 6.0 0.00 0.22 0.00 90 1016.6
20190326110738 51 303 3.0 5.0 0.00 0.22 0.00 90 1016.7
20190326110238 51 296 3.0 5.0 0.00 0.22 0.00 90 1016.7
20190326105737 51 298 4.0 7.0 0.00 0.22 0.00 90 1016.7
20190326105237 51 285 3.0 7.0 0.00 0.22 0.00 90 1016.7
20190326104737 51 277 3.0 6.0 0.00 0.22 0.00 90 1016.8
20190326104237 51 309 2.0 5.0 0.00 0.22 0.00 90 1016.9
20190326103738 51 274 3.0 5.0 0.00 0.22 0.00 91 1016.8
20190326103236 51 269 4.0 9.0 0.00 0.22 0.00 91 1016.8
20190326102738 51 296 5.0 9.0 0.00 0.22 0.00 91 1016.9
20190326102238 51 264 6.0 10.0 0.00 0.22 0.00 91 1016.9
20190326101737 51 238 7.0 12.0 0.00 0.22 0.00 91 1017.0
20190326101237 51 286 7.0 12.0 0.00 0.22 0.00 91 1017.0
20190326100738 51 274 7.0 14.0 0.00 0.22 0.00 92 1017.1
20190326100238 51 297 7.0 14.0 0.00 0.22 0.00 91 1017.0
20190326095738 51 243 7.0 12.0 0.00 0.22 0.00 91 1017.1
20190326095238 51 268 8.0 13.0 0.00 0.22 0.00 92 1017.1
20190326094737 51 266 8.0 13.0 0.00 0.22 0.00 92 1017.2
20190326094236 51 309 7.0 12.0 0.00 0.22 0.00 92 1017.2
20190326093737 51 256 6.0 11.0 0.00 0.22 0.00 92 1017.2
20190326093240 51 285 6.0 10.0 0.00 0.22 0.00 92 1017.2
20190326092738 51 319 5.0 10.0 0.00 0.22 0.00 92 1017.1
20190326092237 51 278 5.0 10.0 0.00 0.22 0.00 92 1017.1
20190326091737 51 269 6.0 13.0 0.00 0.22 0.00 92 1017.1
20190326091236 51 248 7.0 13.0 0.00 0.22 0.00 92 1017.1
20190326090734 51 300 8.0 12.0 0.00 0.22 0.00 92 1017.1
20190326090235 51 279 7.0 12.0 0.00 0.22 0.00 92 1017.2
20190326085735 51 266 7.0 11.0 0.00 0.22 0.00 92 1017.2
20190326085233 51 266 6.0 11.0 0.00 0.22 0.00 92 1017.3
20190326084733 51 273 6.0 10.0 0.00 0.22 0.00 92 1017.3
20190326084232 51 250 6.0 11.0 0.00 0.22 0.00 92 1017.2
20190326083731 51 265 6.0 11.0 0.00 0.22 0.00 92 1017.2
20190326083231 51 233 6.0 9.0 0.00 0.22 0.00 91 1017.3
20190326082730 51 261 6.0 9.0 0.00 0.22 0.00 91 1017.2
20190326082229 51 254 6.0 8.0 0.00 0.22 0.00 91 1017.3
20190326081730 51 254 7.0 9.0 0.00 0.22 0.00 91 1017.3
20190326081229 52 253 7.0 11.0 0.00 0.22 0.00 90 1017.4
20190326080729 51 262 7.0 11.0 0.00 0.22 0.00 90 1017.3
20190326080228 52 255 7.0 10.0 0.00 0.22 0.00 90 1017.4
20190326075727 51 259 7.0 10.0 0.00 0.22 0.00 90 1017.3
20190326075228 52 281 7.0 10.0 0.00 0.22 0.00 89 1017.3
20190326074726 52 262 7.0 11.0 0.00 0.22 0.00 89 1017.3
20190326074226 51 262 7.0 12.0 0.00 0.22 0.00 89 1017.4
20190326073727 51 240 8.0 12.0 0.00 0.22 0.00 90 1017.3
20190326073227 51 253 7.0 12.0 0.00 0.22 0.00 90 1017.4
20190326072727 51 262 7.0 11.0 0.00 0.22 0.00 90 1017.4
20190326072227 51 256 7.0 11.0 0.00 0.22 0.00 90 1017.4
20190326071727 51 259 7.0 11.0 0.00 0.22 0.00 90 1017.4
20190326071226 51 278 7.0 11.0 0.00 0.22 0.00 90 1017.3
20190326070727 51 276 7.0 10.0 0.00 0.22 0.00 91 1017.3
20190326070228 51 276 6.0 10.0 0.00 0.22 0.00 91 1017.3
20190326065729 51 275 5.0 9.0 0.00 0.22 0.22 91 1017.2
20190326065229 51 300 5.0 9.0 0.00 0.22 0.22 92 1017.2
20190326064726 52 278 3.0 6.0 0.00 0.22 0.22 92 1017.2
20190326064226 52 257 4.0 7.0 0.00 0.22 0.22 92 1017.3
20190326063726 52 276 5.0 7.0 0.00 0.22 0.22 92 1017.3
20190326063224 52 275 5.0 7.0 0.00 0.22 0.22 92 1017.3
20190326062725 52 262 5.0 7.0 0.01 0.22 0.22 93 1017.3
20190326062224 52 258 4.0 7.0 0.01 0.22 0.22 93 1017.4
20190326061725 52 215 3.0 5.0 0.01 0.22 0.22 93 1017.4
20190326061225 52 271 3.0 6.0 0.01 0.22 0.22 93 1017.4
20190326060724 52 254 3.0 6.0 0.01 0.22 0.22 93 1017.4
20190326060222 52 260 3.0 5.0 0.01 0.22 0.22 93 1017.4
20190326055724 52 274 3.0 5.0 0.01 0.22 0.22 93 1017.3
20190326055224 52 269 3.0 5.0 0.01 0.22 0.22 93 1017.3
20190326054722 52 293 2.0 5.0 0.01 0.22 0.22 93 1017.3
20190326054223 52 254 2.0 4.0 0.01 0.22 0.22 93 1017.4
20190326053722 52 231 1.0 2.0 0.01 0.22 0.22 93 1017.4
20190326053222 52 148 1.0 1.0 0.01 0.22 0.22 93 1017.4
20190326052722 52 138 1.0 1.0 0.00 0.21 0.21 93 1017.3
20190326052223 52 126 1.0 2.0 0.00 0.21 0.21 93 1017.3
20190326051722 52 110 1.0 2.0 0.00 0.21 0.21 93 1017.3
20190326051224 52 136 1.0 1.0 0.01 0.21 0.21 93 1017.2
20190326050724 52 129 1.0 1.0 0.01 0.21 0.21 92 1017.2
20190326050224 52 148 1.0 2.0 0.01 0.21 0.21 92 1017.3
20190326045720 52 91 1.0 3.0 0.01 0.21 0.21 92 1017.2
20190326045222 52 112 1.0 3.0 0.01 0.21 0.21 92 1017.2
20190326044721 52 80 1.0 3.0 0.01 0.21 0.21 91 1017.1
20190326044222 52 78 1.0 3.0 0.01 0.21 0.21 91 1017.2
20190326043721 52 253 2.0 5.0 0.01 0.21 0.21 90 1017.2
20190326043221 52 259 3.0 5.0 0.01 0.21 0.21 90 1017.3
20190326042721 52 238 3.0 6.0 0.01 0.21 0.21 90 1017.3
20190326042220 52 240 4.0 8.0 0.01 0.21 0.21 90 1017.3
20190326041721 52 243 5.0 8.0 0.01 0.21 0.21 90 1017.2
20190326041221 52 236 5.0 7.0 0.00 0.20 0.20 90 1017.2
20190326040220 52 233 7.0 11.0 0.00 0.20 0.20 89 1017.2
20190326035718 52 274 7.0 11.0 0.00 0.20 0.20 89 1017.2
20190326035219 52 250 4.0 9.0 0.00 0.20 0.20 89 1017.1
20190326034719 53 258 2.0 4.0 0.00 0.20 0.20 90 1017.1
20190326034219 53 276 2.0 4.0 0.00 0.20 0.20 90 1017.1
20190326033719 53 264 2.0 4.0 0.00 0.20 0.20 90 1017.0
20190326033219 53 253 1.0 4.0 0.00 0.20 0.20 90 1017.1
20190326032720 53 221 1.0 3.0 0.00 0.20 0.20 91 1017.1
20190326032219 52 212 2.0 4.0 0.00 0.20 0.20 90 1017.1
20190326031716 53 221 2.0 5.0 0.00 0.20 0.20 91 1017.1
20190326031218 52 216 3.0 5.0 0.00 0.20 0.20 91 1017.0
20190326030716 52 224 3.0 5.0 0.00 0.20 0.20 90 1016.9
20190326030217 52 219 3.0 8.0 0.00 0.20 0.20 90 1017.0
20190326025718 52 240 3.0 8.0 0.00 0.20 0.20 91 1017.1
20190326025216 52 250 3.0 6.0 0.00 0.20 0.20 91 1017.1
20190326024717 52 271 4.0 10.0 0.00 0.20 0.20 91 1017.0
20190326024216 52 242 5.0 10.0 0.01 0.20 0.20 92 1017.0
20190326023716 52 261 5.0 8.0 0.01 0.20 0.20 92 1016.9
20190326023217 52 269 6.0 10.0 0.02 0.20 0.20 93 1016.9
20190326022717 52 290 6.0 10.0 0.03 0.20 0.20 93 1016.9
20190326022216 52 287 6.0 11.0 0.04 0.20 0.20 94 1016.9
20190326021716 52 272 6.0 11.0 0.06 0.20 0.20 94 1017.0
20190326021217 52 255 5.0 9.0 0.07 0.20 0.20 94 1017.0
20190326020714 52 249 5.0 8.0 0.07 0.20 0.20 94 1016.9
20190326020215 52 278 5.0 9.0 0.07 0.20 0.20 94 1016.9
20190326015715 52 274 6.0 11.0 0.07 0.20 0.20 94 1016.8
20190326015215 52 257 7.0 11.0 0.07 0.20 0.20 93 1016.9
20190326014715 53 253 6.0 11.0 0.07 0.20 0.20 94 1016.9
20190326014215 53 269 7.0 10.0 0.06 0.19 0.19 94 1016.9
20190326013714 52 258 6.0 9.0 0.06 0.19 0.19 94 1016.7
20190326013214 53 266 4.0 9.0 0.05 0.18 0.18 94 1016.6
20190326012715 53 262 5.0 9.0 0.04 0.17 0.17 94 1016.8
20190326012214 53 298 6.0 11.0 0.04 0.16 0.16 93 1016.8
20190326011714 53 229 8.0 16.0 0.02 0.14 0.14 94 1016.7
20190326011215 54 217 10.0 18.0 0.01 0.13 0.13 94 1016.6
20190326010714 54 192 9.0 19.0 0.01 0.13 0.13 94 1016.5
20190326010214 54 186 8.0 19.0 0.01 0.13 0.13 94 1016.6
20190326005715 54 194 7.0 15.0 0.01 0.13 0.13 94 1016.6
20190326005216 54 182 5.0 15.0 0.01 0.13 0.13 94 1016.6
20190326004712 54 183 5.0 13.0 0.01 0.13 0.13 94 1016.6
20190326004213 54 202 7.0 16.0 0.01 0.13 0.13 93 1016.7
20190326003712 54 248 7.0 16.0 0.01 0.13 0.13 93 1016.9
20190326003211 54 187 5.0 10.0 0.01 0.13 0.13 93 1016.9
20190326002709 54 209 6.0 11.0 0.01 0.13 0.13 93 1016.8
20190326002210 54 240 7.0 14.0 0.00 0.12 0.12 93 1016.8
20190326001711 54 213 7.0 14.0 0.00 0.12 0.12 92 1016.8
20190326001211 55 197 7.0 18.0 0.00 0.12 0.12 92 1016.9
20190326000712 55 212 8.0 18.0 0.00 0.12 0.12 91 1016.9
20190326000221 55 257 8.0 14.0 0.00 0.12 0.12 91 1017.0
20190325235711 55 236 8.0 15.0 0.00 0.12 0.12 91 1017.0
20190325235210 55 204 8.0 15.0 0.00 0.12 0.12 91 1017.0
20190325234710 55 213 6.0 15.0 0.00 0.12 0.12 91 1017.0
20190325234210 55 189 6.0 12.0 0.00 0.12 0.12 91 1016.9
20190325233709 55 168 5.0 10.0 0.00 0.12 0.12 92 1017.0
20190325233210 55 193 4.0 9.0 0.00 0.12 0.12 92 1017.0
20190325232712 55 212 4.0 9.0 0.01 0.12 0.12 92 1017.1
20190325232211 55 145 5.0 12.0 0.01 0.12 0.12 92 1017.1
20190325231711 55 146 6.0 14.0 0.02 0.12 0.12 92 1017.0
20190325231210 55 200 7.0 14.0 0.03 0.12 0.12 92 1017.1
20190325230710 55 217 8.0 14.0 0.06 0.12 0.12 92 1017.1
20190325230211 56 174 7.0 14.0 0.08 0.12 0.12 92 1017.2
20190325225710 56 153 5.0 13.0 0.11 0.12 0.12 92 1017.1
20190325225210 56 192 2.0 8.0 0.12 0.12 0.12 92 1017.1
20190325224712 56 167 2.0 3.0 0.12 0.12 0.12 92 1017.1
20190325224210 56 154 2.0 5.0 0.12 0.12 0.12 92 1017.2
20190325223710 56 142 3.0 13.0 0.12 0.12 0.12 92 1017.2
20190325223211 56 207 4.0 13.0 0.12 0.12 0.12 91 1017.2
20190325222710 56 174 4.0 9.0 0.11 0.11 0.11 91 1017.2
20190325222211 56 120 3.0 9.0 0.11 0.11 0.11 91 1017.2
20190325221711 56 217 3.0 7.0 0.10 0.10 0.10 90 1017.1
20190325221211 57 138 3.0 7.0 0.09 0.09 0.09 90 1017.2
20190325220710 57 133 4.0 9.0 0.06 0.06 0.06 89 1017.2
20190325220208 57 174 3.0 9.0 0.04 0.04 0.05 87 1017.3
20190325215709 58 131 4.0 10.0 0.01 0.01 0.01 86 1017.3
20190325215207 58 160 6.0 16.0 0.00 0.00 0.00 84 1017.2
20190325214707 58 163 7.0 16.0 0.00 0.00 0.00 83 1017.1
20190325214207 58 157 6.0 15.0 0.00 0.00 0.00 82 1017.1
20190325213703 59 156 7.0 15.0 0.00 0.00 0.00 81 1017.2
20190325213201 59 246 7.0 16.0 0.00 0.00 0.00 81 1017.1
20190325212701 59 154 9.0 19.0 0.00 0.00 0.00 80 1017.2
20190325212201 59 217 10.0 19.0 0.00 0.00 0.00 80 1017.3
20190325211659 59 180 10.0 19.0 0.00 0.00 0.00 80 1017.4
20190325211200 59 171 10.0 19.0 0.00 0.00 0.00 79 1017.3
20190325210700 59 183 7.0 19.0 0.00 0.00 0.00 78 1017.3
20190325210159 59 190 6.0 14.0 0.00 0.00 0.00 78 1017.3
20190325205658 59 104 6.0 16.0 0.00 0.00 0.00 79 1017.3
20190325205159 59 185 7.0 16.0 0.00 0.00 0.00 79 1017.4
20190325204655 59 148 6.0 15.0 0.00 0.00 0.00 79 1017.4
20190325204155 59 181 9.0 20.0 0.00 0.00 0.00 78 1017.4
20190325203655 59 152 10.0 20.0 0.00 0.00 0.00 78 1017.4
20190325203156 59 146 9.0 19.0 0.00 0.00 0.00 78 1017.4
20190325202655 59 137 9.0 19.0 0.00 0.00 0.00 78 1017.4
20190325202154 59 144 8.0 19.0 0.00 0.00 0.00 78 1017.4
20190325201653 58 188 6.0 11.0 0.00 0.00 0.00 77 1017.4
20190325201154 58 136 6.0 13.0 0.00 0.00 0.00 74 1017.4
20190325200655 58 130 6.0 13.0 0.00 0.00 0.00 72 1017.4
20190325200153 58 162 5.0 11.0 0.00 0.00 0.00 72 1017.4
20190325195654 58 111 4.0 10.0 0.00 0.00 0.00 72 1017.2
20190325195154 58 210 5.0 12.0 0.00 0.00 0.00 72 1017.3
20190325194653 58 170 7.0 15.0 0.00 0.00 0.00 72 1017.4
20190325194151 58 188 8.0 15.0 0.00 0.00 0.00 72 1017.4
20190325193653 58 122 7.0 17.0 0.00 0.00 0.00 70 1017.4
20190325193151 58 188 7.0 17.0 0.00 0.00 0.00 68 1017.3
20190325192652 58 181 7.0 15.0 0.00 0.00 0.00 68 1017.3